Location: Unspecified
(29.9680°N, 0.0000°E)
Time: 11:24:57
(UTC+00:00)

Explorer 7 - Visible Passes

Search period start: 05 August 2020 00:00
Search period end: 15 August 2020 00:00
Orbit: 485 x 679 km, 50.3° (Epoch: 04 August)

Date Brightness Start Highest point End Pass type
(mag) Time Alt. Az. Time Alt. Az. Time Alt. Az.
05 Aug 7.4 04:18:49 10° NW 04:22:37 55° NE 04:26:37 10° ESE visible
05 Aug 6.6 19:55:21 10° SSW 19:59:20 60° SE 20:03:08 10° NE visible
05 Aug 9.6 21:37:34 10° WNW 21:40:01 16° NNW 21:41:34 13° N visible
06 Aug 9.8 02:44:35 10° N 02:46:37 14° NNE 02:48:39 10° ENE visible
06 Aug 6.6 04:23:31 10° NW 04:27:23 76° SW 04:31:27 10° SE visible
06 Aug 7.0 20:00:03 10° SW 20:04:05 70° NW 20:07:55 10° NE visible
06 Aug 10.0 21:44:28 10° NW 21:45:05 10° NNW 21:45:39 10° NNW visible
07 Aug 9.1 02:49:19 13° N 02:51:36 21° NE 02:54:39 10° E visible
07 Aug 7.2 04:28:30 10° WNW 04:32:07 38° SW 04:35:53 10° SSE visible
07 Aug 8.2 20:05:08 10° WSW 20:08:54 37° NW 20:12:30 10° NNE visible
08 Aug 8.5 02:57:37 29° ENE 02:57:37 29° ENE 03:00:08 10° ESE visible
08 Aug 8.0 04:34:11 11° W 04:36:47 20° SW 04:39:47 10° S visible
08 Aug 9.2 20:10:36 10° W 20:13:48 22° NW 20:16:53 10° NNE visible
09 Aug 9.7 20:16:32 10° WNW 20:18:46 14° NNW 20:20:57 10° N visible
